Regional Weather Roundup
Issued by NWS

Home | Current Version | Previous Version | Text Only | Print | Product List | Glossary On
Versions: 1 2 3 4 5 6 7 8 9 10 11 12 13 14 15 16 17 18 19 20 21 22 23 24 25 26 27 28 29 30 31 32 33 34 35 36 37 38 39 40 41 42 43 44 45 46 47 48 49 50
000
ASUS43 KLMK 210910
RWRKY
KENTUCKY REGIONAL WEATHER ROUNDUP
NATIONAL WEATHER SERVICE LOUISVILLE KY
400 AM EST SUN DEC 21 2014

NOTE "FAIR" INDICATES FEW OR NO CLOUDS BELOW 12,000 FEET
WITH NO SIGNIFICANT WEATHER AND/OR OBSTRUCTIONS TO VISIBILITY.

KYZ001>023-026-027-061>063-070>075-211000-
WESTERN AND SOUTH CENTRAL KENTUCKY

CITY           SKY/WX    TMP DP  RH WIND       PRES   REMARKS
PADUCAH        CLEAR     25  23  92 CALM      30.26F FOG
HENDERSON      CLEAR     23  19  86 E3        30.28F
OWENSBORO      CLEAR     27  25  92 CALM      30.30S
HOPKINSVILLE   CLEAR     29  24  82 NE3       30.26S
BOWLING GREEN  CLEAR     25  21  85 CALM      30.28S FOG
GLASGOW        CLEAR     26  26 100 CALM      30.27S FOG
$$

KYZ024-025-028>034-038-045-046-053-211000-
NORTH CENTRAL KENTUCKY

CITY           SKY/WX    TMP DP  RH WIND       PRES   REMARKS
LOUISVILLE/SDF CLEAR     27  24  89 NE3       30.30S FOG
LOUISVILLE/LOU CLEAR     24  21  88 CALM      30.31S FOG
FORT KNOX      CLEAR     24  22  91 E2        30.27S
$$

KYZ035>037-039>044-047>052-055>060-089>105-211000-
NORTHEAST KENTUCKY

CITY           SKY/WX    TMP DP  RH WIND       PRES   REMARKS
LEXINGTON      CLEAR     22  20  92 E3        30.28S FOG
COVINGTON      CLOUDY    31  22  69 E3        30.29S
FRANKFORT      CLEAR     21  17  84 NW3       30.28S
$$

KYZ054-064>069-076>088-106>120-211000-
SOUTHEAST KENTUCKY

CITY           SKY/WX    TMP DP  RH WIND       PRES   REMARKS
JACKSON        CLEAR     27  23  85 NE3       30.25F
LONDON         CLEAR     25 N/A N/A N5        30.25F WCI  19
SOMERSET       CLEAR     23  23 100 CALM      30.28S FOG
MIDDLESBORO    CLEAR     25  24  95 CALM      30.26F
MONTICELLO     SUNNY     19  17  92 CALM      30.29S FOG
$$




USA.gov is the U.S. government's official web portal to all federal, state and local government web resources and services.